Weather History for MZBZ - December, 2011

Change the Weather History Date:

Thursday, December 29, 2011

  Actual Average Record
Temperature  
Mean Temperature 76 °F -  
Max Temperature 82 °F - 86 °F (2005)
Min Temperature 69 °F 67 °F 59 °F (1999)
Cooling Degree Days 10    
Growing Degree Days 26 (Base 50)    
Moisture  
Dew Point 71 °F    
Average Humidity 86    
Maximum Humidity 100    
Minimum Humidity 62    
Precipitation  
Precipitation 0.00 in 0.19 in - ()
Sea Level Pressure  
Sea Level Pressure 30.01 in    
Wind  
Wind Speed 3 mph ()    
Max Wind Speed 13 mph    
Max Gust Speed -    
Visibility 5.5 miles    
Events Fog    
Averages and records for this station are not official NWS values.
T = Trace of Precipitation, MM = Missing Value Source: Averaged Metar Reports

Daily Weather History Graph

Daily Weather History Graph

Search for Another Location

Airport or City:

Trip Planner

Search our weather history database for the weather conditions in past years. The results will help you decide how hot, cold, wet, or windy it might be!

Date:

Astronomy

Dec. 29, 2011 Rise Set
Actual Time 6:22 AM CST 5:28 PM CST
Civil Twilight 5:58 AM CST 5:51 PM CST
Nautical Twilight 5:31 AM CST 6:18 PM CST
Astronomical Twilight 5:04 AM CST 6:45 PM CST
Moon 10:00 AM CST (12/29) 10:14 PM CST (12/29)
Length of Visible Light 11h 52m
Length of Day
11h 05m
Waxing Crescent, 27% of the Moon is Illuminated
Dec 29
Waxing Crescent
Jan 1
First Quarter
Jan 9
Full
Jan 16
Last Quarter
Jan 23
New

Hourly Weather History & Observations

Time (CST) Temp. Heat Index Dew Point Humidity Pressure Visibility Wind Dir Wind Speed Gust Speed Precip Events Conditions
12:00 AM 71 °F - 70 °F 94% 30.04 in 12 mi Calm Calm - -  
12:00 AM 71.6 °F - 69.8 °F 94% 30.04 in 6.2 mi Calm Calm - N/A   Mostly Cloudy
3:00 AM 70 °F - 70 °F 99% 29.99 in 0 mi Calm Calm - - Fog Heavy Fog
3:00 AM 69.8 °F - 69.8 °F 100% 29.98 in 0.3 mi Calm Calm - N/A Fog Fog
6:00 AM 82 °F - 71 °F 62% 29.97 in 12 mi ENE 13.4 mph - -   Partly Cloudy
6:00 AM 69.8 °F - 69.8 °F 100% 29.98 in 0.2 mi WNW 4.6 mph - N/A Fog Fog
7:00 AM 69.8 °F - 69.8 °F 100% 30.01 in 0.2 mi Calm Calm - N/A Fog Fog
8:00 AM 71.6 °F - 71.6 °F 100% 30.06 in 0.4 mi NW 5.8 mph - N/A Fog Fog
9:00 AM 72 °F - 72 °F 99% 30.07 in 0 mi NW 4.6 mph - - Fog Heavy Fog
9:00 AM 71.6 °F - 71.6 °F 100% 30.06 in 0.2 mi NW 4.6 mph - N/A Fog Fog
10:00 AM 75.2 °F - 73.4 °F 94% 30.05 in 3.1 mi NE 3.5 mph - N/A   Mostly Cloudy
11:00 AM 78.8 °F - 73.4 °F 83% 30.04 in 6.2 mi NE 3.5 mph - N/A   Mostly Cloudy
12:00 PM 81 °F - 72 °F 67% 30.02 in 12 mi NE 4.6 mph - -   Partly Cloudy
12:00 PM 80.6 °F 84.6 °F 71.6 °F 74% 30.02 in 6.2 mi NE 4.6 mph - N/A   Scattered Clouds
1:00 PM 82.4 °F 87.2 °F 71.6 °F 70% 29.99 in 6.2 mi NE 6.9 mph - N/A   Scattered Clouds
2:00 PM 82.4 °F 87.2 °F 71.6 °F 70% 29.97 in 6.2 mi East 8.1 mph - N/A   Scattered Clouds
3:00 PM 82.4 °F 87.2 °F 71.6 °F 70% 29.96 in 6.2 mi ENE 6.9 mph - N/A   Partly Cloudy
4:00 PM 82.4 °F 87.2 °F 71.6 °F 70% 29.97 in 6.2 mi East 6.9 mph - N/A   Partly Cloudy
5:00 PM 80.6 °F 84.6 °F 71.6 °F 74% 29.97 in 6.2 mi East 4.6 mph - N/A   Partly Cloudy
6:00 PM 77 °F - 72 °F 82% 29.99 in 12 mi East 3.5 mph - -  
6:00 PM 77.0 °F - 73.4 °F 89% 29.99 in 6.2 mi East 3.5 mph - N/A   Partly Cloudy
7:00 PM 77.0 °F - 71.6 °F 83% 30.00 in 6.2 mi Calm Calm - N/A   Partly Cloudy
9:00 PM 74 °F - 72 °F 91% 30.04 in 12 mi Calm Calm - -   Scattered Clouds
9:00 PM 75.2 °F - 71.6 °F 89% 30.03 in 6.2 mi Calm Calm - N/A   Partly Cloudy